GFSFLT2_con_mlcape_057.txt.gz
CAPE
341 227 451 327 375 893 888 688 725 534 237 184 175 94 75 101 4 5 12 32 2 0 0 0 0 0 0 0 0 0 0 0
285 221 44 21 108 148 246 396 439 432 191 122 94 89 63 21 0 0 116 72 0 0 0 0 0 0 0 0 0 0 0 0
91 110 4 23 5 1 0 232 188 356 232 149 106 96 2 0 0 9 81 53 0 0 0 0 0 0 0 0 0 0 0 1
27 69 28 48 23 3 10 9 91 206 237 186 113 33 0 0 0 0 13 15 0 0 0 0 0 0 0 0 0 0 0 1
0 0 1 1 1 2 3 9 45 44 224 126 46 7 0 0 0 0 8 13 19 4 0 0 0 0 0 0 0 0 0 0
3 3 2 2 1 2 0 2 21 48 217 101 17 2 0 0 0 0 0 0 0 13 0 0 0 0 0 0 0 0 0 0
1 4 3 2 1 1 0 10 45 28 175 74 7 0 0 0 0 0 0 0 0 0 0 0 0 0 0 0 0 0 0 0
3 4 2 0 0 0 8 24 16 43 117 57 5 3 0 0 0 0 0 0 0 0 0 0 0 0 0 0 0 0 0 0
3 3 2 0 0 0 2 0 6 40 102 90 9 23 1 0 0 0 0 0 0 0 0 0 0 0 0 0 0 0 0 0
3 2 0 0 0 0 0 0 0 17 64 84 16 4 6 3 0 0 0 0 0 0 0 0 0 0 0 0 0 0 0 0
2 2 2 3 0 0 0 0 0 0 7 41 32 1 3 6 1 0 0 0 0 0 0 0 0 0 0 0 0 0 0 0
0 1 2 3 0 0 2 1 0 0 0 8 19 10 15 11 7 0 0 7 0 0 0 0 0 0 0 0 0 0 0 0
1 1 2 3 2 3 1 0 0 6 3 16 13 22 21 19 19 8 3 3 3 2 0 0 0 0 0 0 0 0 0 0
2 2 1 2 3 6 4 0 0 9 32 34 37 41 31 42 35 22 25 9 4 3 0 0 0 0 0 0 0 0 0 0
1 2 2 2 4 4 2 1 0 2 7 23 34 55 81 69 62 71 76 37 36 20 0 0 0 0 0 0 0 0 0 0
6 1 1 2 1 1 0 0 0 0 2 6 3 41 63 106 100 61 70 42 40 19 1 0 0 0 0 0 0 0 0 0
4 2 1 0 1 0 0 0 0 4 0 5 5 16 18 20 22 23 15 46 64 35 5 0 0 0 0 0 0 0 0 0
3 2 0 0 0 0 0 0 0 0 0 2 1 0 0 5 1 6 5 32 37 37 49 13 0 0 0 0 0 0 0 0
2 1 1 0 0 0 0 0 0 0 0 0 0 0 0 0 0 0 0 0 0 0 0 3 5 4 0 0 0 0 0 0
0 0 0 0 0 0 0 0 0 0 0 0 0 0 0 0 0 0 0 0 0 0 0 0 0 0 0 0 0 0 2 0

GFSFLT2_con_mlcape_060.txt.gz
CAPE
643 451 165 234 413 989 625 1091 939 764 776 735 666 485 333 174 92 139 82 0 0 0 0 0 0 0 0 0 0 0 0 0
469 280 164 81 84 244 327 465 699 653 708 723 474 290 199 45 34 108 79 0 0 0 0 0 0 0 0 0 0 0 0 0
432 228 127 109 77 98 321 518 550 446 605 546 325 239 142 31 2 83 80 0 0 0 0 0 0 0 0 0 0 0 1 0
224 144 121 98 63 50 107 235 290 347 392 380 218 233 110 0 24 64 13 0 0 0 0 0 0 0 0 0 0 0 4 2
79 49 33 21 43 17 5 4 18 58 91 205 201 201 30 27 89 106 59 0 0 0 0 0 0 0 0 0 0 0 2 0
3 48 3 16 39 5 17 31 18 26 29 115 219 75 70 32 60 42 6 1 0 0 0 0 0 0 0 0 0 0 0 1
2 3 8 4 1 1 1 2 38 49 18 116 199 122 62 21 26 24 35 83 43 6 0 1 0 0 0 0 0 0 0 1
3 4 5 6 4 2 2 6 6 49 24 174 172 111 55 27 4 0 0 23 41 7 0 0 0 0 0 0 0 0 0 1
4 2 3 6 6 2 4 0 21 7 33 124 124 85 48 31 4 0 0 1 0 0 0 0 0 0 0 0 0 0 0 0
4 4 1 7 4 4 1 1 23 36 54 119 106 80 52 29 11 1 0 0 0 0 0 0 0 0 0 0 0 0 0 0
2 3 2 1 0 0 2 0 3 36 42 94 89 61 46 18 6 26 18 0 0 0 0 0 0 0 0 0 0 0 0 0
4 2 3 1 0 0 0 0 0 1 32 103 59 48 67 30 19 53 42 1 1 0 0 0 0 0 0 0 0 0 0 0
1 2 2 2 1 0 1 0 0 0 24 37 71 67 87 75 66 66 55 47 45 31 6 0 0 0 0 0 0 0 0 0
1 1 2 2 2 0 0 4 1 1 11 30 67 94 90 88 72 62 52 89 87 67 25 16 2 0 0 0 0 0 0 0
11 10 2 2 0 3 12 21 2 6 3 6 37 103 153 79 81 101 95 92 131 137 98 78 68 5 0 46 64 21 44 0
10 19 10 4 4 3 4 0 0 0 0 5 38 71 114 108 80 131 154 154 132 170 185 158 148 122 0 0 7 10 35 11
5 10 6 2 4 3 2 0 0 0 0 1 50 46 84 92 101 156 192 160 145 157 135 128 148 122 95 63 0 0 0 0
2 2 7 3 3 3 2 2 0 0 0 0 3 12 32 40 51 83 156 87 31 8 34 169 179 144 123 87 27 0 0 0
0 2 2 5 3 3 2 4 1 0 0 0 0 1 6 6 25 79 50 3 0 1 12 72 109 113 126 82 53 3 0 0
0 0 2 6 7 4 3 5 2 0 0 0 0 0 0 0 0 8 13 4 9 44 43 41 69 79 112 111 90 61 20 0

GFSFLT2_con_mlcape_063.txt.gz
CAPE
1324 1302 510 156 78 1 299 803 948 990 971 874 697 403 195 239 204 55 0 0 0 0 0 0 0 0 0 0 0 0 1 0
903 604 274 136 6 126 25 58 711 864 888 826 600 362 343 370 206 72 0 0 0 0 0 0 0 0 0 0 0 0 0 0
726 252 119 11 12 7 22 23 223 481 729 616 515 210 331 249 182 90 0 0 0 0 0 0 0 0 0 0 0 2 3 0
531 301 154 64 24 24 0 2 223 373 497 378 162 272 329 158 208 49 0 0 0 0 0 0 0 0 0 0 3 9 7 1
301 260 283 146 65 29 17 31 187 326 322 301 201 179 134 161 161 24 0 0 0 0 0 0 0 0 0 0 0 9 9 1
130 107 89 80 68 19 11 20 43 105 208 131 98 89 75 129 133 30 0 0 0 0 0 0 0 0 0 0 3 13 8 1
49 100 47 69 46 42 33 16 1 13 43 32 67 102 95 111 149 98 1 6 0 0 4 0 0 0 0 1 5 17 7 1
20 3 14 9 10 16 13 18 7 1 3 20 49 121 138 134 122 114 79 66 15 0 18 2 0 0 0 0 1 3 11 4
1 4 0 2 2 2 2 2 4 4 0 15 27 129 159 198 224 231 168 115 65 40 2 0 0 0 0 0 0 1 3 12
2 2 0 5 2 3 2 4 5 16 31 18 2 116 124 162 143 136 112 114 78 24 0 0 1 0 0 0 0 0 0 2
3 2 1 5 9 4 6 3 2 2 8 20 25 136 115 133 99 89 54 42 47 25 2 3 1 0 0 0 0 0 0 0
5 2 2 0 5 4 11 6 2 1 0 39 91 75 89 85 91 81 33 18 13 19 3 0 1 0 0 0 0 0 0 0
5 2 2 0 3 1 1 5 5 8 5 41 61 49 71 60 91 127 118 38 23 35 10 0 0 0 0 0 0 0 0 0
2 3 2 1 0 1 4 2 2 1 1 33 66 61 130 98 112 134 158 115 103 76 68 38 2 0 0 0 0 0 0 0
2 3 2 1 0 0 10 3 3 0 4 10 25 63 105 143 171 152 117 182 153 158 160 113 56 5 0 31 39 13 21 0
14 13 4 1 3 1 1 0 0 0 0 4 12 12 88 104 92 100 159 136 127 163 181 148 131 89 44 12 80 129 86 16
0 10 11 5 4 3 0 0 4 14 1 5 7 0 51 75 75 49 107 180 140 201 197 178 185 83 130 131 60 66 107 58
0 2 9 10 3 2 1 0 3 8 9 5 4 5 23 36 46 56 39 132 153 162 160 227 191 170 102 110 93 57 32 21
0 1 1 5 5 4 2 1 1 1 1 0 0 0 6 15 51 69 59 52 85 50 162 162 175 128 197 111 68 87 72 24
0 0 0 2 4 3 6 3 8 2 1 0 0 0 0 12 59 49 61 29 36 55 51 51 45 50 106 134 86 40 93 82

GFSFLT2_con_mlcape_069.txt.gz
CAPE
1308 1159 849 747 723 590 171 142 100 214 287 110 169 617 452 400 256 136 86 34 4 3 0 0 0 0 0 0 0 0 0 0
726 1042 760 340 203 56 97 92 7 0 18 206 402 461 339 326 247 97 41 20 5 0 0 0 0 0 0 0 0 0 0 0
523 677 596 267 80 28 46 54 64 12 0 2 298 396 263 196 112 63 15 6 0 0 0 0 0 0 0 0 0 0 0 0
610 466 206 84 51 7 0 0 31 0 0 1 145 251 104 116 55 34 5 3 0 0 0 0 0 0 0 0 0 0 0 0
528 271 59 6 7 0 0 3 0 0 0 0 194 140 74 42 16 8 0 0 0 0 0 0 0 0 0 0 0 0 0 0
224 189 63 22 16 1 0 0 0 0 0 0 180 95 45 3 1 0 0 0 0 0 0 0 0 0 0 0 0 0 0 0
72 13 68 0 0 0 0 0 0 0 4 20 127 77 11 0 0 0 0 0 0 0 0 0 0 0 0 0 0 0 0 0
7 5 2 0 0 0 0 0 0 4 57 76 65 77 0 0 0 0 0 0 0 0 0 0 0 0 0 3 0 0 0 0
1 3 0 0 4 0 0 1 3 19 35 32 44 52 1 0 0 0 0 0 0 0 0 0 0 0 0 1 0 0 0 0
1 1 0 0 0 1 0 0 1 12 29 4 20 44 3 0 0 0 0 0 0 0 0 0 0 0 1 2 0 0 0 0
0 0 1 0 0 1 0 0 0 1 1 0 6 9 21 5 0 0 3 0 0 0 0 0 0 0 0 0 0 0 0 0
0 2 2 0 1 3 1 5 1 1 0 1 8 2 3 7 12 19 65 3 0 0 1 0 0 0 0 0 0 0 0 0
2 3 2 1 0 1 2 0 1 2 0 0 2 0 0 19 21 21 43 55 38 25 16 4 0 0 0 0 0 0 0 0
1 0 0 1 0 0 0 1 3 3 1 0 0 1 0 4 21 30 9 39 38 4 8 3 2 0 0 1 0 0 0 0
0 0 0 0 0 1 2 1 1 1 1 0 0 0 5 1 8 4 0 6 0 0 2 0 0 0 0 1 0 0 0 0
0 0 1 0 0 1 1 1 0 1 1 0 0 0 0 0 0 0 0 5 9 27 16 4 0 0 0 1 0 3 0 0
0 0 0 0 3 0 1 1 0 0 0 0 0 0 0 0 1 0 3 15 20 26 29 13 2 0 0 2 0 3 27 16
0 0 0 0 1 1 0 0 0 0 0 0 0 0 0 0 0 17 21 14 63 39 28 18 10 18 18 11 0 0 0 24
0 0 0 0 0 0 0 0 0 0 0 0 0 0 0 0 0 3 45 27 16 64 33 46 38 42 48 46 38 27 27 35
0 0 0 1 0 0 0 0 0 0 0 0 0 0 0 0 0 4 12 17 22 37 48 46 27 28 15 19 32 32 47 43

GFSFLT2_con_mlcape_072.txt.gz
CAPE
1070 1073 1141 1273 1523 1048 858 724 224 264 209 260 13 308 487 670 628 552 340 117 131 24 0 0 0 0 0 0 0 0 0 0
992 878 576 560 564 711 571 503 97 101 117 21 22 138 289 459 552 416 212 46 26 3 0 0 0 0 0 0 0 0 0 0
480 626 453 314 251 261 229 270 144 95 43 10 4 159 229 377 337 244 134 29 3 0 0 0 0 0 0 0 0 0 0 0
333 431 416 233 54 39 38 68 84 15 0 0 0 0 186 210 224 110 68 33 2 0 0 0 0 0 0 0 0 0 0 0
395 313 149 109 9 0 0 3 13 1 0 0 0 0 122 151 110 27 29 41 14 0 0 0 0 0 0 0 0 0 0 0
430 205 34 0 0 0 0 0 0 0 0 0 0 3 108 56 20 0 3 0 0 0 0 0 0 0 0 0 0 0 0 0
289 168 30 0 0 0 0 0 0 0 0 0 10 35 29 2 1 0 0 0 0 0 0 0 0 0 0 0 0 0 0 0
133 135 59 1 0 0 0 0 1 0 1 0 4 27 1 0 1 0 0 0 0 0 0 0 0 0 0 0 0 0 0 0
40 75 7 0 0 0 0 0 4 3 0 0 45 3 0 1 0 0 0 0 0 0 0 0 0 0 0 0 0 0 0 0
8 0 0 0 0 0 0 2 1 4 4 11 4 1 0 0 0 0 0 0 0 0 0 0 0 0 0 0 0 0 0 0
0 0 0 0 1 0 0 1 5 7 8 22 9 0 0 0 0 0 0 0 0 0 0 0 0 0 0 0 0 0 0 0
0 0 0 0 0 3 1 0 1 0 12 22 38 7 0 0 0 0 0 0 0 0 0 0 0 0 0 0 0 0 0 0
0 0 0 0 1 1 4 1 1 1 0 3 0 9 0 0 0 0 0 0 0 0 0 0 0 0 0 0 0 0 0 0
0 0 0 0 0 1 1 1 1 1 1 1 0 0 0 0 0 2 8 0 0 0 0 0 0 0 0 0 0 0 0 0
0 0 0 0 0 0 0 1 1 1 1 1 1 0 3 13 0 16 40 30 5 3 0 0 1 0 0 0 0 0 2 0
0 0 0 0 1 0 0 1 1 0 1 0 0 0 0 1 21 7 22 55 35 18 0 0 3 0 0 0 0 0 0 0
0 0 0 0 1 0 0 1 0 1 1 0 0 0 0 0 8 16 10 37 30 12 20 1 0 0 0 0 0 0 0 0
0 0 0 0 0 0 0 0 0 2 0 1 1 0 0 1 4 9 0 7 20 7 0 3 1 5 0 0 0 0 0 13
0 0 0 0 0 1 0 0 0 0 0 0 1 0 0 0 0 0 0 3 3 1 2 5 11 15 13 0 0 0 0 0
0 0 0 0 0 0 0 0 0 0 0 0 0 0 0 0 0 0 0 0 1 26 12 8 36 33 17 15 21 27 28 35

GFSFLT2_con_mlcape_075.txt.gz
CAPE
1083 1382 1596 1591 1600 1440 1038 774 626 486 485 279 184 294 439 722 711 571 460 419 250 157 90 5 8 0 0 0 0 0 0 0
1008 986 1048 1154 1382 1242 959 737 396 243 25 1 1 100 125 183 457 451 362 345 195 80 7 1 0 0 0 0 0 0 0 0
768 680 566 554 751 827 905 595 127 18 17 12 31 66 135 144 340 366 262 236 100 20 0 0 0 0 0 0 0 0 0 0
420 382 378 220 232 391 521 362 58 8 11 21 25 68 63 35 147 287 191 147 33 0 0 0 0 0 0 0 0 0 0 0
170 205 210 129 99 112 140 158 47 17 36 8 0 6 95 180 109 167 124 111 0 0 0 0 0 0 0 0 0 0 0 0
197 148 108 73 25 0 0 23 0 1 1 2 0 0 4 56 77 56 49 36 3 0 0 0 0 0 0 0 0 0 0 0
225 168 60 4 0 0 0 0 0 1 0 1 0 0 4 121 45 0 8 7 0 0 0 0 0 0 0 0 0 0 0 0
205 109 48 0 0 0 0 0 0 0 1 3 0 6 77 95 22 0 0 0 0 0 0 0 0 0 0 0 0 0 0 0
12 79 49 4 2 0 0 0 0 0 1 1 4 13 125 50 16 1 0 0 0 0 0 0 0 0 0 0 0 0 0 0
0 24 29 0 0 0 0 2 1 3 0 0 1 37 74 21 1 0 0 0 0 0 0 0 0 0 0 0 0 0 0 0
0 4 1 0 0 0 1 3 3 6 7 2 1 25 2 1 1 0 0 0 0 0 0 0 0 0 0 0 0 0 0 0
0 0 0 1 0 0 1 2 3 10 4 2 3 2 0 0 0 0 0 0 0 0 0 0 0 0 0 0 0 0 0 0
0 0 0 0 0 1 0 1 1 7 4 4 1 1 0 3 0 0 0 0 0 0 0 0 0 0 0 0 0 0 0 0
0 0 0 0 0 0 0 1 2 0 3 10 28 18 1 0 0 0 0 0 0 0 0 0 0 0 0 0 0 0 0 0
0 0 0 0 0 0 0 0 2 1 8 15 2 4 0 0 0 0 0 0 0 0 0 0 0 0 0 0 0 0 3 0
0 0 0 0 0 0 0 0 0 1 2 1 3 9 1 0 0 3 2 0 0 2 3 3 1 3 0 0 0 0 18 5
0 0 0 0 0 0 0 0 0 0 2 0 1 1 0 0 0 0 5 1 9 26 17 6 14 14 0 0 1 0 0 0
0 0 0 0 0 0 0 0 0 0 0 1 1 0 1 0 0 0 2 7 15 20 34 36 8 0 4 8 5 1 3 0
0 0 0 0 0 0 0 0 0 0 0 3 0 1 0 0 0 0 0 0 17 13 30 33 10 1 0 0 2 4 7 14
0 0 0 0 0 0 0 0 0 0 0 0 0 0 0 0 0 0 0 0 3 12 23 31 7 5 1 0 0 9 12 14

GFSFLT2_con_mlcape_078.txt.gz
CAPE
1245 1409 1416 1494 1476 1290 881 753 711 812 844 402 384 123 85 270 460 589 648 740 642 455 277 133 54 13 2 0 0 0 0 0
1080 1332 1493 1419 1377 1474 1133 873 574 246 135 115 0 1 91 152 266 428 303 509 454 293 159 81 19 1 0 0 0 0 0 0
1020 1083 1170 1190 1076 1065 1079 778 491 223 34 0 0 0 20 32 182 255 352 288 329 97 70 55 4 0 0 0 0 0 0 0
816 783 784 683 820 919 890 637 278 68 2 0 0 0 5 14 88 180 169 179 122 35 19 5 0 0 0 0 0 0 0 0
635 543 354 283 383 286 340 282 69 13 1 0 0 1 17 54 18 82 96 109 0 0 0 0 0 0 0 0 0 0 0 0
264 201 237 131 128 153 180 190 17 6 6 6 2 5 39 63 71 69 59 31 0 0 0 0 0 0 0 0 0 0 0 0
180 136 152 88 76 54 83 72 7 5 2 2 1 18 54 58 20 52 39 0 0 0 0 0 0 0 0 0 0 0 0 0
241 164 64 1 0 1 1 2 2 1 1 2 0 0 10 52 56 47 5 0 0 0 0 0 0 0 0 0 0 0 0 0
321 149 13 0 0 1 0 0 1 1 1 1 2 1 3 60 59 34 8 0 0 0 0 0 0 0 0 0 0 0 0 0
224 94 2 0 0 0 1 0 0 0 1 2 2 2 69 86 85 23 1 0 0 0 0 0 0 0 0 0 0 0 0 0
114 20 0 0 0 0 1 1 1 4 1 1 1 4 7 76 37 1 0 0 0 0 0 0 0 0 0 0 0 0 0 0
34 2 0 0 0 3 0 1 2 3 7 1 2 2 20 15 1 1 0 0 0 0 0 0 0 0 0 0 0 0 0 0
25 0 0 0 0 0 3 0 2 4 9 11 1 3 19 5 1 0 0 0 0 0 0 0 0 0 0 0 0 0 0 0
18 0 0 0 2 0 0 1 0 5 2 2 2 1 1 2 0 0 0 0 0 0 0 0 0 0 0 0 1 0 0 0
12 0 0 0 0 0 0 0 1 1 2 5 1 1 0 0 0 0 0 0 0 0 0 0 0 0 0 0 0 0 0 0
0 0 0 1 0 0 0 0 0 0 2 1 2 1 0 0 0 0 0 0 0 0 0 0 0 0 0 0 0 0 11 0
0 0 0 0 0 0 0 0 0 0 1 3 1 3 0 0 0 0 0 0 0 3 1 0 0 4 4 1 2 1 10 3
0 0 0 1 3 0 0 0 0 0 0 3 0 1 2 0 0 0 0 0 0 7 5 13 13 3 19 43 39 18 15 23
1 0 0 0 1 0 0 0 0 0 0 0 1 1 0 2 2 3 0 0 0 0 22 22 29 45 42 39 24 22 23 23
1 0 0 0 0 1 0 0 0 0 0 0 2 2 1 0 2 2 2 0 0 1 0 20 24 6 2 7 3 6 1 2

GFSFLT2_con_mlcape_081.txt.gz
CAPE
1152 1419 1553 1377 1276 1212 1232 946 740 921 1268 1501 603 186 363 220 230 234 379 761 806 803 637 466 302 141 61 15 2 5 24 15
1357 1365 1493 1711 1563 1316 1202 1122 757 403 542 355 210 103 95 27 12 102 270 681 659 652 488 318 154 52 7 1 0 0 0 0
1322 1400 1496 1545 1422 1350 1331 1104 792 497 347 155 56 25 3 1 13 61 144 402 511 409 325 158 64 6 0 0 0 0 0 0
1132 1179 1357 1274 1140 1145 1274 1054 676 317 204 86 19 5 11 2 0 32 104 227 247 242 178 64 29 26 0 0 0 0 0 0
949 1010 1056 1137 1051 889 812 606 399 138 30 18 10 0 0 0 3 34 154 174 197 236 114 77 58 25 0 0 0 0 0 0
791 800 822 776 773 586 508 382 171 59 0 0 0 1 19 63 99 75 75 45 128 226 140 21 0 0 0 0 0 0 0 0
780 666 623 480 402 382 243 171 132 45 3 0 3 6 46 98 51 105 58 3 53 127 20 1 0 0 0 0 0 0 0 0
647 478 389 347 219 192 109 125 92 23 5 0 1 12 35 91 77 85 51 0 12 65 0 0 0 0 0 0 0 0 0 0
472 366 451 232 92 83 11 11 6 4 3 2 0 2 4 67 102 98 51 1 0 3 0 0 0 0 0 0 0 0 0 0
460 420 315 89 34 1 0 1 0 1 1 1 2 4 22 61 73 55 7 0 0 2 0 0 0 0 0 0 0 0 0 4
446 386 185 9 3 3 1 1 3 0 2 1 1 1 5 72 79 33 4 1 0 0 0 0 0 0 0 0 0 0 0 4
374 259 90 0 1 1 1 2 2 2 2 0 2 3 3 56 37 6 2 2 0 0 0 0 7 3 0 0 0 1 3 4
221 180 6 0 0 0 1 0 1 2 3 4 2 2 11 7 2 1 1 1 0 0 0 0 0 2 0 1 4 2 1 0
159 106 0 1 1 1 1 1 3 3 4 1 10 1 4 9 0 2 3 2 0 0 0 0 0 0 0 1 4 2 2 2
156 32 0 1 1 3 1 3 3 4 2 3 1 1 3 2 2 2 1 1 0 0 0 0 0 0 0 2 2 7 2 3
48 8 1 2 3 2 0 0 1 6 2 3 2 2 1 2 2 0 0 0 0 0 0 0 0 0 0 0 12 1 19 1
7 0 2 3 1 0 0 2 4 3 3 1 1 2 2 2 2 0 0 0 0 0 0 0 0 0 2 4 0 1 11 18
1 0 1 1 1 1 0 8 3 0 6 1 0 2 1 1 0 0 0 0 0 0 0 0 0 3 5 11 12 28 25 36
0 0 0 3 0 0 1 2 2 0 0 1 0 0 2 0 0 0 0 0 0 0 0 0 1 9 24 30 37 47 51 35
7 6 1 2 1 0 1 1 1 1 2 2 3 2 3 1 0 0 0 0 0 0 0 4 13 6 11 30 43 42 29 13

GFSFLT2_con_mlcape_084.txt.gz
CAPE
1732 1715 1485 1187 1180 1167 930 1189 1350 1197 1561 1289 806 681 500 370 361 431 299 335 484 781 962 787 612 406 249 177 236 358 326 276
1477 1751 1836 1646 1432 1167 1127 995 1040 1017 1122 1006 662 439 383 300 227 244 146 189 390 726 699 569 413 241 142 101 69 132 191 211
2059 1711 1814 1826 1942 1677 1221 1256 1126 865 740 635 587 663 535 227 164 136 107 161 293 608 498 370 230 115 82 38 29 148 97 63
2029 1815 1971 1905 1881 1914 1726 1789 1459 1140 943 633 707 698 439 247 130 33 36 148 313 327 265 196 164 244 114 24 105 49 58 25
1803 1771 2014 2073 1614 1562 1528 1541 1322 1107 1005 582 544 657 260 50 55 98 186 36 56 180 167 247 218 186 148 130 59 78 46 37
1441 1591 1772 1833 1476 1321 1212 1005 882 886 895 762 333 375 370 160 41 35 70 7 70 104 273 221 177 185 115 90 36 33 20 26
1377 1508 1582 1301 1116 973 859 700 602 632 661 535 235 186 198 67 40 127 188 139 127 126 205 159 148 107 88 39 18 14 10 15
1512 1377 1449 1428 1446 925 682 648 542 466 511 405 82 37 92 108 147 142 84 55 108 93 131 117 118 70 78 31 8 2 3 4
1563 1325 1281 1281 1204 1114 914 578 590 380 240 206 16 62 73 157 209 157 68 97 73 89 116 92 91 79 47 24 10 2 2 0
1513 1121 1160 1180 1118 765 567 269 323 323 252 169 7 1 10 35 89 139 111 63 84 61 100 78 74 73 32 35 8 0 0 0
1460 1075 1118 1208 865 484 418 98 85 76 84 64 25 4 5 1 81 170 71 23 80 47 95 86 71 57 35 31 8 7 2 8
1375 1151 1241 965 273 197 212 101 36 2 3 3 2 3 8 23 71 95 33 8 5 21 58 71 85 42 27 20 26 11 6 8
1342 1093 1078 557 236 138 89 43 14 3 4 4 4 3 2 17 68 55 12 2 1 6 66 62 46 49 35 22 20 4 19 6
1229 963 802 447 221 91 45 5 3 12 10 40 48 25 45 18 36 23 5 2 1 0 50 39 49 27 24 13 10 12 8 10
938 781 780 294 194 75 59 23 7 3 16 63 56 33 8 10 23 2 2 2 1 0 9 28 42 41 48 10 10 7 10 20
677 722 669 193 102 66 9 0 3 15 7 5 7 3 4 2 6 2 1 2 2 1 3 30 22 22 32 32 13 8 18 22
599 492 469 132 79 76 2 7 9 29 5 3 2 1 1 1 1 1 1 2 2 0 4 31 7 6 7 34 39 50 24 26
429 198 141 75 104 77 6 15 9 11 3 2 2 2 3 2 0 2 2 2 2 2 4 36 4 30 20 40 8 24 34 43
47 70 68 44 164 25 7 10 10 4 2 1 1 1 1 2 2 1 2 2 1 0 0 1 0 15 9 32 0 17 36 68
10 34 34 17 79 4 1 3 12 6 7 6 2 2 0 0 0 2 2 2 2 0 0 0 5 19 22 50 54 63 59 58

GFSFLT2_con_mlcape_087.txt.gz
CAPE
1974 1593 1318 1000 1058 1066 1231 1496 1734 1920 1515 1483 1217 1019 801 733 524 439 292 228 190 343 508 876 787 538 372 395 420 374 513 476
2166 1997 1797 1655 1481 1162 1100 1410 1554 1645 1434 1207 950 820 732 566 338 261 218 196 267 262 247 421 419 321 270 334 317 244 413 348
2176 1944 1975 1868 1731 1615 1220 1187 1267 1332 1217 865 732 743 701 433 360 241 154 133 165 248 221 231 219 216 267 294 191 367 279 99
2349 2065 2008 2035 1736 2014 1666 1539 1368 1314 1081 1090 816 734 768 601 361 167 94 89 58 78 205 111 160 326 308 139 288 169 80 38
2161 2260 2091 2156 1992 2155 1794 1789 1813 1680 1391 1274 910 804 782 705 390 117 96 38 19 122 135 184 215 341 341 303 181 100 40 36
2059 2230 2072 1952 1725 1645 1585 2148 2120 1720 1472 1300 1001 813 748 590 454 202 95 114 62 86 202 178 228 281 290 195 73 82 82 57
1988 1900 1956 1925 1829 1664 1747 1842 1740 1539 1435 1244 1063 718 695 489 182 112 109 195 62 12 22 130 236 208 188 164 49 63 34 49
1967 1908 1899 1889 1863 1627 1370 1499 1346 1225 1140 1116 1115 786 577 574 330 141 152 238 78 11 42 112 218 184 141 146 37 40 22 20
1812 2038 1922 1908 1778 1804 1314 1410 1010 931 783 1070 893 728 536 351 236 234 208 229 187 42 48 81 146 134 119 69 33 35 14 5
1375 2018 1857 1903 1773 1665 1526 971 843 911 937 814 699 516 405 346 305 306 227 155 104 52 62 50 61 150 83 33 44 21 11 5
1030 2060 1742 1848 1764 1598 1295 957 748 857 847 558 440 396 402 356 311 186 141 109 92 77 60 34 55 72 50 48 29 8 7 4
1143 2092 1720 1801 1741 1319 913 640 544 409 384 312 433 251 129 59 11 27 86 100 116 86 44 39 78 61 28 31 33 24 17 6
1337 1995 1653 1819 1461 821 607 399 407 270 185 154 217 224 95 3 9 25 39 67 81 94 55 21 40 57 79 34 33 21 26 14
1449 1852 1673 1683 1005 933 650 442 290 341 298 134 60 8 2 4 15 53 29 27 43 65 42 26 41 76 31 19 30 10 24 10
1401 1733 1693 1577 1098 931 582 322 210 171 72 52 344 174 137 39 47 32 8 23 10 8 11 13 31 37 23 2 11 8 22 18
1248 1572 1538 1455 1146 817 496 252 100 86 63 103 240 156 109 97 79 51 62 8 1 5 6 22 26 45 35 17 0 0 1 26
1257 1400 1324 1351 1030 736 462 242 81 51 54 50 58 8 2 7 6 16 11 16 1 7 0 25 25 70 45 44 20 23 18 15
1418 1251 1308 973 985 696 488 239 67 31 76 74 3 4 2 0 1 4 3 2 2 2 1 0 36 41 62 77 64 29 58 39
1421 1200 1252 835 859 733 430 167 52 22 88 29 2 1 1 0 0 0 1 1 2 2 3 12 43 29 73 61 82 78 66 47
1117 755 741 544 758 712 354 85 18 22 82 6 3 2 3 1 2 0 1 1 2 2 3 29 43 43 81 72 62 61 78 63

GFSFLT2_con_mlcape_093.txt.gz
CAPE
993 842 1065 987 921 949 1226 1554 1386 1472 1647 1792 1888 1556 1279 1136 1047 772 632 433 279 179 192 182 190 416 293 333 252 384 378 415
1079 675 925 864 888 995 1202 1372 1126 1533 1643 1858 1977 1773 1448 1124 993 782 587 341 186 145 139 76 3 314 237 173 185 283 260 353
1664 881 772 734 813 944 1151 1317 1354 1416 1561 1736 1716 1588 1404 1136 884 771 541 330 136 94 188 90 98 286 260 135 159 261 294 296
2056 1783 1217 1035 1078 882 968 1261 1220 1342 1410 1357 1241 1296 1162 983 820 691 580 401 171 132 259 231 234 286 226 113 102 174 210 165
2277 2259 2046 1682 1542 1151 884 927 1025 1145 1120 927 941 1174 1008 849 693 632 467 347 255 313 101 75 132 124 180 101 89 101 117 62
2323 2160 2164 1956 1408 1315 1061 1096 965 880 977 1080 721 1060 937 829 641 421 373 386 193 109 79 16 22 133 187 135 81 83 77 61
2352 2097 1834 1798 1764 1641 1327 1530 1314 1283 1208 1412 1039 1020 956 958 572 373 226 276 157 92 53 33 22 62 112 122 77 61 17 15
2372 2234 1975 1651 1623 1671 1750 1818 1601 1638 1617 1450 1265 1011 918 949 711 437 266 136 86 40 52 22 1 79 16 58 60 60 12 0
2310 2323 2169 1932 1666 1796 1689 1792 1756 1639 1641 1473 1288 1115 957 883 676 412 335 197 108 30 21 9 4 14 18 30 51 28 4 5
1714 2387 2216 2087 1658 1770 1483 1367 1394 1336 1386 1375 1195 1201 1034 882 639 398 379 222 93 25 14 10 0 7 10 34 46 24 1 2
896 2271 2124 2004 1796 1643 1441 1237 1130 1063 1030 1053 1139 940 964 804 564 425 387 228 34 10 6 5 3 13 26 45 34 11 0 0
217 1912 2042 1947 1786 1534 1385 1072 880 1020 942 791 935 833 860 658 479 378 307 178 63 4 0 0 0 36 37 60 23 0 4 0
64 1679 1902 1909 1708 1563 1334 1234 967 803 809 722 604 649 706 544 395 277 252 147 58 3 3 2 7 26 21 2 12 0 0 0
389 1688 2008 1976 1694 1601 1346 1060 663 550 699 573 586 640 580 458 337 274 193 87 67 22 17 11 10 19 24 14 0 0 0 0
834 1845 2072 1876 1674 1153 834 627 463 392 386 369 325 364 424 317 288 255 229 161 66 35 20 5 8 15 8 0 2 0 2 4
1171 1860 1923 1699 1522 1378 1135 893 646 384 280 221 211 236 233 215 184 112 106 87 73 62 32 2 3 7 15 22 0 0 0 0
1745 1821 1793 1656 1378 1169 997 783 429 355 304 236 169 128 146 156 147 112 107 61 60 113 58 1 0 1 0 15 2 0 2 0
1920 1727 1726 1631 1269 1103 922 701 431 351 297 207 188 217 178 135 129 69 30 9 38 89 86 18 1 0 3 2 2 0 0 0
1614 1721 1686 1601 1397 1158 943 749 488 302 228 244 198 106 52 5 0 6 10 21 19 26 53 48 5 0 0 0 0 0 1 18
1093 1364 1574 1322 1367 1219 949 699 464 292 270 149 61 6 1 0 0 1 2 0 16 9 33 30 19 1 0 1 5 0 15 45

GFSFLT2_con_mlcape_096.txt.gz
CAPE
447 731 1002 1138 1105 1155 1245 1411 1542 1496 1500 1583 1666 1493 1308 1266 1212 1085 877 704 655 834 837 718 590 569 433 338 387 443 409 396
420 526 799 974 1025 1158 1269 1505 1455 1379 1457 1485 1751 1599 1347 1260 1198 981 766 701 576 553 395 369 411 425 297 214 328 363 300 266
938 420 616 724 906 1155 1370 1390 1252 1286 1409 1599 1820 1631 1521 1266 1155 926 713 567 464 389 360 196 251 446 244 174 280 271 257 238
1096 547 443 694 872 1081 1318 1386 1274 1374 1456 1703 1736 1616 1441 1171 1065 905 575 409 344 294 295 160 213 430 242 189 204 248 197 179
1555 1047 496 481 777 823 1054 1243 1159 1292 1340 1533 1466 1378 1269 1079 923 834 511 423 339 336 413 306 335 432 250 173 186 256 200 190
1864 1755 1181 606 682 697 787 950 931 1083 1294 1241 1117 1158 989 888 792 644 557 493 327 320 370 404 357 279 185 87 131 229 172 137
2037 2131 1801 1370 1099 921 837 797 871 919 944 942 885 1019 859 716 671 531 445 460 325 291 252 100 133 42 108 49 68 149 135 95
2198 2262 2192 1897 1466 1267 951 968 857 812 863 926 805 838 794 699 610 538 468 403 278 275 105 24 13 16 20 68 45 54 93 57
2252 2277 2311 2091 1716 1337 1268 1193 1218 1086 1013 1076 963 892 803 755 639 591 508 353 240 80 69 28 14 51 20 27 41 31 28 36
1222 2131 2077 2043 1850 1534 1439 1426 1550 1364 1340 1176 1147 1015 913 812 736 653 496 367 239 112 57 43 8 2 18 19 25 20 19 26
153 1376 1881 2067 1732 1437 1432 1486 1617 1489 1410 1329 1169 1051 910 808 721 640 541 380 246 117 54 29 9 3 6 16 27 28 3 12
0 601 1360 2057 1686 1315 1354 1495 1484 1329 1243 1257 1136 1007 992 856 685 577 441 271 154 106 75 4 3 0 0 23 26 19 0 0
0 453 1339 1849 1683 1324 1083 1338 1191 1027 845 712 859 891 764 730 661 498 386 309 164 55 18 0 0 3 14 45 5 0 0 0
0 266 1121 1617 1707 1594 1200 1089 932 754 642 741 579 656 466 648 542 438 364 318 159 65 29 2 8 5 3 0 0 1 0 0
0 159 789 1533 1818 1507 1025 483 492 651 682 582 441 381 346 432 423 356 273 216 135 79 21 12 14 7 2 0 0 1 1 0
0 392 945 1572 1710 1426 941 1048 973 697 469 313 308 339 388 368 344 287 230 148 97 60 35 20 20 20 17 0 0 0 0 1
57 782 1327 1672 1444 1362 1153 1061 695 301 198 252 191 213 245 238 291 212 168 102 68 56 25 7 23 20 9 1 0 0 0 0
1138 1247 1579 1508 1302 1134 1206 843 515 394 266 195 113 91 89 168 141 144 112 73 60 86 45 9 8 20 9 5 0 0 0 0
696 1669 1606 1453 1282 961 909 648 474 490 274 156 101 77 55 134 124 129 100 81 52 35 76 35 13 5 8 3 0 0 0 0
294 1502 1444 1157 1014 769 577 455 446 367 239 154 142 109 57 53 105 105 68 25 6 19 38 61 11 3 0 3 1 0 0 0

GFSFLT2_con_mlcape_099.txt.gz
CAPE
786 943 1145 1283 1439 1487 1516 1483 1482 1477 1456 1412 1310 1299 1376 1298 1391 1342 1105 940 1123 1046 910 794 746 798 746 567 616 683 505 450
500 749 871 957 1145 1209 1276 1421 1490 1532 1557 1534 1533 1401 1376 1294 1346 1282 1049 897 950 1002 970 788 779 768 614 554 497 568 426 432
476 628 784 748 869 1180 1291 1438 1559 1412 1507 1463 1578 1513 1358 1302 1246 1114 930 744 693 897 912 818 811 728 504 498 469 429 361 344
440 568 644 716 889 1030 1266 1549 1455 1157 1234 1311 1610 1551 1344 1193 1183 1033 815 707 682 750 681 641 708 539 480 435 300 308 313 289
804 557 591 611 760 973 1151 1408 1297 1084 1232 1326 1604 1523 1405 1141 1084 953 693 570 496 407 453 319 284 575 471 366 372 332 280 280
1259 912 573 474 556 663 967 1110 1094 1198 1097 1259 1559 1440 1286 1076 964 835 558 419 323 274 247 316 243 604 380 251 275 238 210 257
1479 1150 687 464 422 508 658 823 891 1079 1090 1201 1419 1331 1115 994 827 671 590 410 217 208 179 221 223 485 285 172 165 110 117 192
1954 1703 1269 838 566 361 361 686 898 894 926 1018 1165 1136 1008 915 713 588 489 382 245 215 157 258 307 240 193 52 53 59 67 130
1946 2090 1885 1579 1109 524 366 519 602 668 780 928 909 933 903 805 664 521 397 300 263 197 113 124 105 81 17 53 55 43 57 49
793 2137 2199 2087 1703 1258 880 705 727 616 685 785 738 741 783 688 634 510 306 275 262 221 124 50 24 13 1 22 50 57 54 53
0 1188 2076 2274 2104 1683 1386 1032 895 794 742 715 768 745 710 679 578 454 342 340 327 274 133 81 32 15 26 10 25 38 38 35
0 318 1391 2133 2221 1771 1492 1272 1275 1103 1043 950 876 908 818 734 573 489 433 459 326 275 202 78 42 24 6 9 15 25 16 30
0 55 794 1761 1913 1800 1602 1504 1416 1235 1300 1162 1138 1054 869 731 566 513 486 456 277 250 135 77 12 2 6 8 3 15 13 21
0 0 685 1351 1676 1647 1616 1467 1288 1138 1069 1093 1176 1029 902 737 559 502 406 323 149 123 75 26 4 1 5 4 0 1 1 6
0 0 406 1115 1581 1623 1217 858 639 827 889 925 1022 898 836 748 416 407 374 304 184 61 75 36 14 1 0 3 1 0 1 0
0 0 461 1123 1703 1497 1184 1063 1019 904 883 826 544 532 543 400 341 260 320 240 149 92 33 12 1 2 4 7 0 0 0 0
1 8 456 948 1597 1550 1221 1216 973 685 646 455 565 383 366 182 190 224 211 178 128 66 21 4 1 0 5 4 4 0 0 0
2 248 638 1359 1627 1582 1291 1105 831 563 449 482 339 253 248 225 203 213 230 136 76 63 40 3 1 2 12 16 15 1 0 0
3 225 1373 1599 1630 1578 1200 979 677 595 467 452 205 143 161 163 90 115 127 69 29 52 31 0 1 4 6 5 1 0 0 0
1 115 1734 1706 1511 1322 953 564 606 461 387 288 203 128 93 48 58 97 35 30 44 31 49 21 4 11 9 12 5 0 0 0

GFSFLT2_con_mlcape_102.txt.gz
CAPE
1491 1607 1649 1563 1509 1509 1531 1506 1401 1233 1133 1147 1244 1302 1305 1447 1551 1590 1374 1291 1238 1168 778 664 782 976 842 713 696 726 648 736
1394 1499 1643 1580 1511 1472 1500 1558 1524 1464 1343 1214 1212 1286 1319 1353 1382 1409 1208 994 1068 959 812 724 887 977 841 717 726 667 608 635
1208 1274 1401 1429 1445 1562 1592 1592 1578 1532 1522 1461 1356 1315 1361 1309 1286 1276 1096 904 972 973 895 811 831 931 826 648 724 661 555 520
906 888 965 1034 1199 1306 1454 1599 1616 1576 1568 1551 1509 1375 1291 1288 1242 1226 1047 850 888 891 775 774 829 774 704 664 579 632 560 504
463 506 661 822 1055 1133 1142 1413 1423 1428 1381 1406 1414 1472 1355 1227 1152 1160 959 784 670 733 689 633 683 675 595 579 605 582 511 485
507 678 550 782 963 1060 1145 1333 1352 1264 1266 1169 1187 1479 1372 1161 1083 978 781 630 507 482 560 460 506 551 505 436 531 432 315 338
1414 889 794 852 888 918 961 1238 1338 1313 996 1087 1182 1463 1414 1174 1029 945 695 492 360 273 200 249 226 309 366 329 417 318 204 160
1650 1553 1190 899 851 809 830 1008 916 957 1061 1065 1211 1463 1388 1152 1058 905 701 466 255 186 179 145 220 237 253 306 166 158 75 85
31 1441 1515 1192 889 689 563 611 701 683 823 1102 1204 1348 1270 1074 983 779 632 389 265 74 103 96 105 225 243 169 121 57 46 32
0 193 1146 1510 1187 813 576 506 484 655 855 1006 973 1085 1145 1009 893 717 419 337 298 113 116 135 98 170 103 91 35 14 7 31
0 2 518 1232 1542 1256 809 608 503 505 610 631 743 965 1019 973 910 634 338 346 270 171 150 153 77 69 20 41 24 21 20 22
0 0 81 1036 1776 1564 1167 938 735 656 625 659 644 799 803 788 755 575 348 292 227 195 210 146 93 14 10 23 17 18 33 33
0 0 0 775 1666 1695 1585 1461 1307 1105 838 659 561 664 678 712 599 467 335 337 246 272 188 205 118 17 1 7 4 6 5 14
0 0 0 551 1420 1778 1727 1544 1488 1341 1044 804 575 675 679 744 604 535 440 472 335 311 180 166 107 23 8 4 1 1 10 20
0 0 0 430 1160 1843 1480 1521 1338 1235 1141 1053 961 950 869 876 673 540 470 363 278 185 140 91 96 4 1 2 0 4 0 0
0 0 0 488 1283 1558 1415 1406 1060 941 1081 1202 1095 1031 971 949 748 626 540 271 246 159 117 60 20 20 1 0 0 0 0 0
0 0 0 0 1420 1369 1187 1137 1211 947 982 981 826 739 868 933 690 574 335 198 195 130 57 37 36 28 1 0 0 0 0 0
0 0 0 0 1502 1531 1300 931 1088 1028 940 956 740 715 835 646 515 351 190 173 124 74 56 9 4 0 0 1 0 0 0 0
0 4 0 0 1138 1557 1438 1298 1130 981 861 784 716 658 531 383 330 170 123 155 111 75 25 1 0 2 2 1 0 0 0 0
5 3 2 1 1124 1573 1552 1365 1007 841 733 543 466 442 413 287 253 121 130 97 86 58 35 0 1 3 5 2 1 0 0 0

GFSFLT2_con_mlcape_105.txt.gz
CAPE
1753 1938 1836 1654 1559 1430 1274 1109 1042 1070 1136 1195 1314 1450 1555 1611 1684 1746 1750 1660 1563 1596 988 861 968 960 907 872 906 1005 1381 1440
1625 1715 1836 1976 1901 1568 1488 1314 1175 1159 1138 1228 1359 1392 1513 1656 1656 1860 1767 1534 1515 1397 947 840 877 892 875 826 843 861 1305 1318
1348 1531 1662 1830 1877 1830 1619 1558 1454 1336 1320 1261 1367 1715 1740 1789 1822 1851 1630 1391 1408 1195 966 831 875 952 850 772 762 1149 1221 1240
1314 1427 1513 1614 1638 1886 1966 1863 1908 1924 1874 1745 1735 1785 1831 1782 1758 1528 1501 1207 1176 1030 986 854 950 1347 1095 775 1165 1223 1162 1132
1000 1061 1124 1245 1511 1702 1804 1702 1727 1788 1995 2045 1915 1788 1753 1722 1740 1716 1796 1236 1413 1022 918 1161 1289 1363 1211 1092 1117 1031 1144 1112
692 769 803 881 1360 1318 1365 1474 1524 1659 1897 2008 1924 1703 1615 1732 1673 1787 1818 1528 1382 1322 1161 1254 1282 1275 1301 1016 691 816 965 1047
789 519 429 633 1094 1121 1217 1179 1277 1664 1821 1885 1964 1639 1604 1621 1655 1583 1487 1382 1255 1064 1014 938 1029 1079 1076 1023 740 733 564 452
1108 722 420 679 655 982 1022 1135 1355 1401 1701 1779 1802 1733 1504 1456 1461 1399 1351 1267 1117 1013 925 852 870 817 801 718 793 617 331 133
0 0 155 1094 903 886 1047 1126 1275 1258 1272 1224 1098 1157 1264 1344 1370 1270 1085 1037 971 798 662 580 636 518 398 505 701 590 243 71
0 0 342 1330 1446 1262 1083 1109 1185 1014 877 942 1019 1170 1278 1231 1277 1213 888 746 798 682 441 412 408 405 381 403 573 347 79 22
0 0 20 330 1096 1505 1328 1101 983 936 843 834 1026 1133 1203 1182 1268 1127 745 633 631 597 446 417 328 229 353 398 527 197 18 1
0 0 0 16 723 1274 1322 1122 959 802 687 761 876 1041 1123 1214 1251 1008 712 540 524 448 401 304 240 243 173 169 210 126 49 21
0 0 0 0 467 821 964 948 1136 866 847 1024 1049 1009 1057 1170 1153 940 715 642 430 403 322 228 170 143 137 118 35 57 39 34
0 0 0 0 5 857 1056 1024 1164 1193 1035 944 956 861 887 1024 1039 796 601 514 370 355 285 246 166 97 69 23 12 5 6 15
0 0 0 0 0 794 1404 1228 1217 1163 1113 1098 1009 1025 878 930 901 649 493 435 421 448 319 304 172 73 46 29 2 0 0 3
0 0 1 0 0 322 1207 1051 1036 1245 1472 1348 1240 1070 892 874 787 613 520 571 566 427 364 284 161 109 44 25 0 1 11 0
0 1 1 0 1 0 1206 1336 1238 1442 1720 1630 1390 1106 966 817 741 705 731 656 519 381 234 195 148 97 64 18 2 0 0 0
0 1 2 2 1 3 531 1274 1379 1469 1527 1519 1309 1053 1031 891 743 732 641 661 511 371 166 170 119 84 64 47 8 0 0 0
0 2 3 4 4 5 141 1268 1344 1396 1423 1456 1173 945 1042 869 796 698 819 656 446 260 144 109 83 58 22 25 14 3 1 0
1 4 6 5 4 5 324 1107 1332 1344 1413 1357 1055 796 859 708 659 654 715 441 226 204 185 112 56 27 15 1 1 1 2 0

GFSFLT2_con_mlcape_108.txt.gz
CAPE
2525 2281 1881 1440 1308 1174 1080 981 1041 1293 1548 1778 1928 2030 1982 1855 1911 1996 1991 1894 1785 1762 1674 1136 1080 1079 1028 972 1003 1015 1162 1046
2581 2666 2408 2283 1967 1375 1217 1118 1041 1119 1288 1535 1802 1912 1895 1829 1892 1900 1780 1752 1724 1708 1491 1086 1074 1090 1035 905 957 1079 1255 1007
2407 2126 2111 2286 2483 2129 1539 1334 1204 1225 1340 1368 1504 1693 1963 1993 1860 1827 1760 1769 1593 1544 1358 1020 1045 1044 924 850 916 1032 953 1036
1783 1882 2016 1908 2090 2555 2211 2179 1837 1721 1704 1785 1760 1800 2037 1925 1928 1985 1878 1658 1388 1359 1278 1025 970 1224 1077 885 1065 820 800 925
1707 1734 1871 1960 1844 2269 2366 2398 2303 2259 2206 2267 2003 2017 2154 2046 2145 2087 1988 1682 1591 1337 1359 1352 1238 1219 1159 1059 1056 1149 952 1015
1775 1793 1853 1812 1718 2021 2078 2085 2228 2096 2298 2481 2180 2191 2054 2004 1871 2000 1950 1968 1605 1696 1447 1397 1326 1369 1174 1251 1153 919 846 952
1487 1574 1673 1525 1393 1725 1758 1746 1703 1912 2135 2238 2407 2276 2192 1986 1752 1799 1937 1896 1757 1748 1560 1549 1404 1319 1251 1271 1098 1054 974 1114
6 1224 1519 1439 1345 1366 1477 1591 1494 1685 1758 1809 2393 2137 2250 2045 1956 2068 1888 1895 1856 1669 1637 1602 1405 1225 1171 1179 1014 1006 884 841
0 9 1652 1628 1435 1365 1342 1272 1446 1349 1589 1826 2028 2084 1981 1887 1848 1854 1981 1827 1885 1760 1683 1536 1392 1120 1119 1065 898 814 753 794
0 0 0 122 1287 1628 1665 1514 1452 1397 1387 1533 1932 1921 1871 1824 1730 1639 1745 1954 1975 1749 1657 1471 1389 1219 1063 911 794 793 666 666
0 0 0 0 309 1103 1540 1875 1789 1657 1589 1493 1484 1633 1498 1445 1465 1562 1458 1449 1739 1697 1440 1424 1172 978 928 860 562 668 623 456
0 0 0 0 1 539 944 1454 1668 1897 1790 1610 1393 1381 1321 1390 1435 1468 1228 1297 1372 1400 1181 1157 1021 810 588 539 506 529 492 428
0 0 0 0 0 13 363 1042 1210 1200 1752 1766 1525 1471 1396 1342 1416 1399 1182 1199 1154 1166 1097 952 786 615 301 183 216 357 340 338
0 0 0 0 0 0 58 509 735 936 1298 1628 1615 1406 1319 1333 1414 1336 1196 1275 963 1017 740 566 593 547 279 118 94 102 191 235
0 0 0 0 0 0 0 345 744 842 977 1333 1410 1501 1305 1271 1303 1415 1268 1316 972 884 642 560 396 278 349 108 8 27 1 30
0 0 0 0 0 0 0 12 617 844 990 1025 1200 1429 1585 1391 1372 1507 1401 1210 968 870 667 809 513 320 231 246 0 10 28 21
0 0 0 0 0 0 2 0 477 982 1013 1134 1335 1256 1403 1587 1449 1475 1365 1047 937 836 725 846 770 625 229 136 137 0 0 10
0 0 0 0 0 0 3 3 15 1077 1113 1364 1364 1434 1242 1401 1392 1465 1315 1008 804 832 1126 970 610 665 553 404 200 36 0 2
0 0 0 0 1 1 1 3 7 391 1432 1538 1553 1622 1280 1237 1270 1254 1147 977 1138 1247 1133 873 724 535 497 443 378 374 82 13
0 1 3 2 3 4 4 5 3 382 1246 1382 1610 1639 1298 1223 1155 1268 1242 1237 1206 1131 1014 857 679 502 345 302 133 90 11 6

GFSFLT2_con_mlcape_111.txt.gz
CAPE
2701 2252 1669 1197 1000 954 1066 1250 1427 1682 1929 2096 2124 2048 1793 1657 1734 1899 2000 1999 2004 1895 1913 1456 1183 1114 1111 1069 1060 1091 1081 826
2855 2700 2250 1972 1550 1061 992 998 1100 1383 1732 1999 2126 1983 1806 1867 1908 1894 2011 2094 2079 1853 1896 1469 1137 1130 1128 1034 1028 1026 1120 1312
2899 2954 2620 2542 2303 1805 1239 1106 1026 1151 1472 1792 2055 2360 2466 2424 2144 2101 1851 1874 1801 1773 1781 1414 1097 1083 1108 1002 986 1063 796 589
2742 2552 2337 2623 2620 2553 1939 1814 1474 1443 1473 1752 1914 1930 2067 2082 2031 1845 1890 1708 1711 1651 1651 1284 1012 1247 1214 944 1119 899 868 585
2287 2274 2146 2263 2460 2630 2431 2291 2055 2027 1931 1967 1822 1883 2039 2014 2119 2027 2067 1833 1974 1605 1634 1517 1315 1238 1432 1292 1009 951 797 921
2475 2313 2528 2469 2409 2434 2262 2147 2338 2133 2101 2353 2206 2050 1932 2025 1480 1969 2140 1987 1833 1859 1599 1616 1494 1478 1581 1382 1190 1130 1284 1124
1979 2279 2244 2431 2561 2121 2083 1976 2272 2189 2348 2298 2254 1781 1953 1658 1646 1526 2170 1987 1990 1895 1779 1688 1544 1343 1381 1324 1371 1212 1219 1097
0 1107 1957 2095 2089 2033 1882 1912 1799 2015 2108 1990 2403 1969 1951 1844 1732 1542 1378 1842 2082 1920 1797 1717 1637 1505 1386 1423 1329 1156 1056 972
0 0 225 1558 1826 1804 1743 1436 1659 1628 1784 1834 2284 2157 2296 2251 1977 1690 1435 1410 2195 2084 1933 1846 1782 1554 1369 1401 1207 1205 1042 936
0 0 0 238 1342 1287 1670 1483 1331 1371 1433 1745 1976 2153 2117 2412 2173 2038 1965 1661 1734 1969 1893 1752 1629 1561 1375 1217 1115 1117 946 869
0 0 0 0 0 128 1211 1661 1778 1676 1698 1665 1989 2204 2109 2220 2349 2040 2061 1947 1737 1928 1874 1737 1694 1471 1448 1154 1058 972 968 743
0 0 0 0 0 0 196 739 1221 1742 1929 2023 2064 2017 2236 2207 2159 2088 1967 1871 1924 1873 1872 1763 1675 1258 1176 863 882 1055 823 619
0 0 0 0 0 0 0 246 582 1133 1611 1964 2391 2201 2094 2155 2065 1827 1844 1663 1729 1762 1735 1409 1467 1456 1302 1032 803 688 549 414
0 0 0 0 0 0 0 0 42 372 1095 1342 1949 2404 2205 2108 2085 1816 1888 1554 1584 1494 1441 1297 1285 1376 842 638 384 403 345 489
0 0 0 0 0 0 0 0 0 122 718 796 1371 2109 2328 2200 1816 1938 1917 1568 1355 1467 1299 1185 1139 1103 822 371 144 83 172 287
0 0 0 0 0 0 0 0 0 0 399 690 1040 1563 2049 2184 2096 1774 2022 1703 1510 1416 1266 1254 1107 607 912 664 445 303 199 172
0 0 0 0 0 0 0 0 0 0 7 806 1085 1316 1754 1701 1714 1903 1931 1790 1730 1527 1222 1261 1041 805 664 511 616 355 263 198
0 0 0 0 0 0 1 1 1 1 0 195 1492 1384 1635 1626 1566 1528 1770 1943 1631 1697 1481 1136 1066 969 711 459 356 344 176 243
0 0 0 0 0 0 0 0 2 3 2 0 577 1375 1466 1673 1332 1647 1585 1756 1709 1718 1555 1092 1081 1170 980 650 407 429 207 170
0 0 0 0 0 0 0 1 3 3 1 0 268 1259 1424 1795 1462 1555 1628 1723 1779 1708 1376 1078 951 1121 911 835 685 528 534 390

GFSFLT2_con_mlcape_114.txt.gz
CAPE
2723 1814 1322 1167 1209 1352 1577 1750 1884 1959 1983 1983 1948 1908 1752 1561 1547 1770 1921 2030 2022 1913 1923 1804 1339 1072 1019 993 940 905 829 932
3241 2479 1678 1314 1120 1111 1226 1392 1539 1743 1916 2004 2006 1977 1882 1638 1553 1706 1791 1862 1810 1854 1838 1652 1272 1085 984 941 892 817 682 671
2969 2850 2285 1916 1554 1123 1041 1115 1251 1458 1668 1895 1970 2075 1933 1780 1665 1803 1765 1771 1830 1905 1808 1708 1333 1068 1011 921 872 891 896 615
2908 3129 2690 2526 2161 1763 1177 1137 1144 1328 1593 1759 2123 2276 2356 2184 2138 1879 2005 1761 1757 1697 1728 1665 1315 1180 999 846 895 973 977 841
2794 2574 2341 2447 2669 2387 1625 1711 1381 1445 1535 1828 1779 2134 2384 2207 2181 1912 1861 1830 1636 1576 1610 1616 1430 1217 1339 1209 973 923 1001 980
2697 2352 2105 1982 2226 2786 2554 2217 2003 1951 1793 1895 1952 1774 1767 2192 1648 2054 1898 1917 1685 1850 1704 1613 1458 1525 1343 1307 1152 1033 1146 889
1918 2101 2302 1949 2131 2399 2565 2404 2479 2439 2247 2339 2267 2062 2203 2119 1807 2041 2173 2042 1948 1687 1854 1734 1543 1389 1468 1386 1173 1123 1103 1067
86 1035 1731 2398 2233 2386 2307 2510 2424 2102 2220 2541 2436 2380 1796 2227 1944 2045 2265 2222 1967 1831 1582 1312 1551 1500 1244 1252 1198 1212 1078 1118
0 0 0 130 1572 1713 1788 2245 2190 2463 2324 2042 2318 2482 2106 2120 2134 1724 1651 2250 1912 1707 1853 1772 1567 1653 1455 1237 1244 1221 1084 990
0 0 0 0 0 1350 1960 1811 1903 1797 2197 2239 1852 2463 2019 2476 1996 2099 2185 1617 2138 1855 1657 1533 1614 1728 1496 1498 1411 1204 938 879
0 0 0 0 0 0 1 1026 1855 1699 1612 2025 2032 1765 2666 2156 2392 1945 1904 2204 1873 2152 1744 1586 1674 1558 1544 1371 1253 973 913 823
0 0 0 0 0 0 0 0 760 1875 1978 1738 1915 2049 2000 2348 2293 2444 1860 1968 2008 1988 1916 1918 1807 1522 1639 1345 1118 959 790 860
0 0 0 0 0 0 0 0 0 815 1681 2016 2120 2184 2290 2161 2282 2427 2124 1741 1652 1772 2033 1729 1692 1685 1509 1181 966 977 875 760
0 0 0 0 0 0 0 0 0 0 0 223 1624 2164 2272 2345 2373 2372 2328 1861 1580 1708 2047 1868 1555 1609 1444 1011 595 715 758 611
0 0 0 0 0 0 0 0 0 0 0 0 1050 1575 2224 1923 2204 2271 2144 1936 1544 1425 1826 1689 1300 1237 1293 667 239 51 433 441
0 0 0 0 0 0 0 0 0 0 0 0 9 604 831 1910 1678 2209 2017 2034 1567 1267 1474 1530 1234 965 1184 888 373 253 108 192
0 0 0 0 0 0 0 0 0 0 0 0 0 0 239 1365 1810 2001 2025 2035 1817 1300 1235 1444 1150 1034 896 934 804 512 494 377
0 0 0 0 0 0 0 0 0 1 0 0 0 0 4 1015 1528 1691 1859 1756 1731 1580 1434 1438 1166 1210 895 763 780 663 519 318
0 0 0 0 0 0 0 0 0 1 2 2 1 0 0 85 1135 1239 1648 1707 1698 1779 1712 1472 1287 1147 1054 745 684 571 491 245
0 0 0 0 0 0 1 1 1 1 2 2 2 1 0 0 895 1072 752 1466 1401 1461 1526 1652 1443 1251 1108 953 662 375 355 197

GFSFLT2_con_mlcape_117.txt.gz
CAPE
1862 1687 1388 1180 1219 1525 1654 1694 1645 1581 1623 1642 1516 1426 1413 1318 1270 1402 1552 1949 2004 1937 1819 1739 1403 1042 968 979 999 1033 901 561
2047 1696 1366 1176 1147 1417 1618 1708 1725 1747 1804 1788 1782 1652 1617 1538 1417 1489 1639 1950 1929 1760 1743 1673 1323 1042 948 942 937 920 801 678
2614 2218 1620 1044 999 1186 1418 1555 1675 1804 1903 1888 1827 1871 1872 1697 1506 1449 1655 1756 1775 1710 1731 1598 1309 1053 940 908 913 853 740 684
2728 2505 2113 1373 1155 968 1035 1205 1315 1517 1695 1785 1770 1784 1760 1726 1508 1407 1479 1548 1646 1730 1714 1535 1354 1076 876 842 775 832 751 766
2837 2720 2358 1908 1630 1197 831 963 999 1214 1387 1576 1692 1751 1751 1606 1486 1386 1618 1672 1581 1663 1536 1433 1277 1087 951 971 900 820 700 710
2771 2741 2548 2362 2192 1938 1442 913 831 833 1141 1436 1424 1550 1962 1954 1778 1687 1567 1686 1498 1382 1248 1306 1221 1031 913 1043 1197 979 737 738
2024 2344 2378 2193 2199 2357 2085 1525 1154 1034 1045 1438 1560 1383 1552 1946 1897 1859 1720 1652 1517 1384 1259 1271 1231 1079 1026 1201 1218 1063 986 884
68 1714 2239 2007 1578 1730 1949 2027 1968 1753 1684 1578 1796 1712 1512 1563 1701 1768 1608 1655 1636 1460 1424 1422 1437 1150 1147 1193 1221 1117 1168 924
0 0 0 0 546 956 1073 923 1474 1823 1829 2109 2101 1922 2033 1657 1799 1678 1723 1819 1752 1647 1393 1345 1410 1148 1201 1014 982 1064 1065 1004
0 0 0 0 0 0 41 572 920 1160 1132 1864 2282 2273 1923 2033 1532 1801 1427 1888 1856 1789 1546 1391 1279 1054 1168 1222 1080 1038 1028 958
0 0 0 0 0 0 0 0 0 199 1119 1587 1658 1826 2190 1947 1839 1825 1754 1568 1791 1856 1573 1405 1295 1032 1246 1280 1101 1089 980 888
0 0 0 0 0 0 0 0 0 0 43 942 1216 1425 1481 1829 1925 1828 1722 1693 1783 1780 1691 1414 1229 1210 1327 1319 1152 987 942 859
0 0 0 0 0 0 0 0 0 0 0 0 29 1028 1329 1476 1735 1680 1660 1604 1446 1690 1695 1522 1343 1223 1259 1087 1058 893 787 676
0 0 0 0 0 0 0 0 0 0 0 0 0 0 43 1141 1406 1572 1607 1471 1024 1308 1512 1511 1465 1435 1037 936 690 744 790 763
0 0 0 0 0 0 0 0 0 0 0 0 0 0 0 123 1160 1179 1311 1293 1034 902 967 1318 1343 1307 1140 770 411 441 347 558
0 0 0 0 0 0 0 0 0 0 0 0 0 0 0 0 0 643 1169 1097 869 676 786 1026 1028 817 1048 838 213 114 58 16
0 0 0 0 0 0 0 0 0 0 0 0 0 0 0 0 0 0 630 1002 879 775 685 1034 921 799 809 1094 732 223 131 76
0 0 0 0 0 0 0 0 0 0 0 0 0 0 0 0 0 0 0 879 1009 975 888 945 1171 1178 823 687 792 726 461 373
0 0 0 0 0 0 0 0 1 1 1 2 1 0 0 0 0 0 0 92 1014 1077 832 874 974 1136 863 773 727 709 579 479
0 0 0 0 0 0 0 0 0 1 0 0 1 2 1 0 0 0 0 0 473 892 745 754 1125 1149 1008 889 745 663 618 515

GFSFLT2_con_mlcape_123.txt.gz
CAPE
1418 1270 1317 1279 1259 1310 1250 1261 1241 1316 1286 1031 928 869 905 940 1030 1164 1642 2133 1859 1583 1368 1151 882 796 774 748 808 907 688 476
1711 1479 1328 1301 1314 1252 1278 1399 1384 1391 1426 1304 1041 896 964 953 889 1040 1420 1873 1846 1695 1501 1266 1036 764 721 700 722 772 643 449
1782 1594 1322 1173 1249 1342 1433 1501 1540 1529 1527 1526 1291 1136 1093 1167 1082 999 1267 1698 1789 1762 1625 1373 1137 844 691 674 654 637 557 388
1963 1852 1733 1413 1297 1349 1516 1659 1711 1638 1539 1502 1586 1416 1221 1345 1304 1137 1247 1444 1775 1799 1653 1402 1195 839 658 635 570 529 499 460
2084 2010 1853 1751 1546 1276 1321 1484 1591 1666 1654 1623 1669 1608 1555 1509 1490 1425 1360 1454 1633 1829 1679 1465 1221 872 626 548 497 456 395 426
0 1414 2211 1924 1584 1288 1140 1223 1347 1541 1674 1726 1627 1573 1605 1583 1524 1420 1339 1373 1416 1604 1540 1414 1251 994 717 513 509 450 365 358
27 1150 2413 2125 1791 1436 1032 1073 1117 1156 1352 1617 1563 1539 1607 1509 1477 1373 1296 1256 1251 1341 1436 1286 1206 1046 777 601 491 426 575 428
285 1158 1919 2197 1887 1641 1343 960 882 927 1016 1129 1378 1347 1177 1190 1264 1239 1233 1183 1170 1119 1193 1198 1154 1012 845 691 568 529 697 620
0 0 0 53 80 73 154 546 867 873 913 1177 1020 1070 1202 1087 1116 1183 1215 1310 1174 1090 1103 1157 1150 996 851 730 654 564 684 662
0 0 0 0 0 0 0 0 0 0 0 0 50 381 1106 1174 1143 1107 1220 1128 1245 1341 1321 1201 1118 1038 905 693 710 629 713 684
0 0 0 0 0 0 0 0 0 0 0 0 0 0 33 145 175 166 598 758 895 1074 1188 1173 1030 960 925 839 691 639 725 775
0 0 0 0 0 0 0 0 0 0 0 0 0 0 0 7 0 0 0 91 398 660 926 1000 963 826 685 677 668 684 713 774
0 0 0 0 0 0 0 0 0 0 0 0 0 0 0 0 0 0 10 60 20 343 614 758 749 486 353 315 251 271 479 682
0 0 0 0 0 0 0 0 0 0 0 0 0 0 0 0 0 0 1 0 44 49 542 496 531 318 361 195 190 243 276 305
0 0 0 0 0 0 0 0 0 0 0 0 0 0 0 0 0 0 0 0 0 29 380 190 283 272 312 109 101 166 167 217
0 0 0 0 0 0 0 0 0 0 0 0 0 0 0 0 0 0 0 0 0 0 0 270 67 16 87 72 60 1 9 8
0 0 0 0 0 0 0 0 0 0 0 0 0 0 0 0 0 0 0 0 0 0 0 0 263 10 43 46 38 0 36 0
0 0 0 0 0 0 0 0 0 0 0 0 0 0 0 0 0 0 0 0 0 0 0 0 1 296 164 79 19 12 12 15
0 0 0 0 0 1 0 0 1 1 1 2 2 1 1 1 0 1 2 1 0 1 1 0 0 21 126 46 33 16 19 7
0 0 0 2 1 2 0 0 0 0 0 0 0 2 1 0 0 0 1 1 1 0 0 0 1 0 38 91 78 51 80 39

GFSFLT2_con_mlcape_129.txt.gz
CAPE
1735 1798 1813 1573 1552 1493 1433 1431 1314 1082 913 1010 1270 1439 1495 1490 1517 1576 1559 1620 1615 1550 1303 1273 988 824 690 657 543 556 1088 1095
1925 1777 1886 1979 2020 1697 1520 1459 1406 1229 1147 1030 1107 1262 1398 1405 1482 1620 1605 1601 1746 1810 1706 1427 1091 805 704 624 580 643 1067 1089
1888 2001 1907 1918 1923 1892 1694 1580 1501 1487 1482 1394 1329 1585 1625 1562 1502 1631 1842 1878 1997 1837 1472 1259 992 736 649 585 587 1025 1197 1090
1692 2008 2041 1877 1828 1892 1997 2050 1996 1944 1906 1938 1907 1803 1775 1726 1672 1493 1663 1793 1850 1803 1488 1228 956 1077 887 595 865 1038 1117 1058
1227 1956 2094 2082 1960 1902 1816 1710 1902 1931 1918 1958 2012 1850 1607 1647 1711 1590 1640 1560 1908 1891 1687 1574 1646 1486 1206 1000 985 1016 936 1064
271 1813 2116 2077 2065 1996 1737 1561 1694 1753 1795 1867 1801 1944 1693 1533 1509 1597 1627 1539 1594 1841 1904 1826 1760 1686 1485 1230 1044 877 812 900
0 315 420 769 1799 1813 1794 1578 1519 1539 1488 1352 1448 1747 1638 1449 1591 1471 1362 1455 1603 1566 1603 1383 1280 1299 1344 1229 1114 846 776 736
0 0 0 467 1100 1407 1482 1308 1267 1349 1442 1283 1276 1378 1517 1509 1449 1347 1212 1195 1058 1504 1353 1329 1383 1236 1199 1090 1061 1041 912 831
0 0 0 0 0 14 157 191 314 427 334 332 845 1463 1526 1415 1307 1194 1185 1080 812 1017 1017 970 1480 1197 990 1020 1007 1073 1009 871
0 0 0 0 0 0 0 0 0 0 0 3 4 2 27 704 854 779 524 483 627 719 795 960 1111 1168 1147 1016 946 820 1051 1112
0 0 0 0 0 0 0 0 0 0 0 0 0 0 0 0 47 331 204 74 218 418 146 223 812 743 790 807 807 821 942 1045
0 0 0 0 0 0 0 0 0 0 0 0 0 0 0 0 0 0 4 63 178 83 2 4 415 962 850 791 759 783 716 638
0 0 0 0 0 0 0 0 0 0 0 0 0 0 0 0 0 0 0 2 3 27 115 62 46 165 148 176 327 522 495 415
0 0 0 0 0 0 0 0 0 0 0 0 0 0 0 0 0 0 0 0 0 1 2 4 3 69 79 140 54 147 179 250
0 0 0 0 0 0 0 0 0 0 0 0 0 0 0 0 0 0 0 0 0 0 2 2 9 40 41 67 78 66 72 103
0 0 0 0 0 0 0 0 0 0 0 0 0 0 0 0 0 0 0 0 0 0 0 2 2 2 54 38 28 50 26 41
0 0 0 0 0 0 0 0 0 0 0 0 0 0 1 2 3 1 1 1 0 3 0 0 1 3 3 40 6 8 37 82
0 0 0 0 0 0 0 0 0 0 0 0 0 0 0 1 0 0 0 1 0 1 0 0 1 1 2 3 7 10 0 57
0 0 0 0 0 0 1 0 1 1 1 1 1 0 0 1 3 0 0 2 4 2 2 2 0 0 1 1 2 2 32 27
0 0 0 0 0 1 1 3 0 2 3 2 2 2 1 1 1 1 1 1 2 4 4 4 4 1 1 2 2 0 0 35

GFSFLT2_con_mlcape_135.txt.gz
CAPE
2616 3404 2351 1683 1754 1724 1636 1451 1210 990 1029 1572 2117 2267 2026 1718 1977 1977 1954 2018 2379 2260 2236 2120 1670 956 523 592 611 421 692 1094
2058 3080 3714 3450 2863 1705 1644 1635 1567 1407 1265 1145 1404 1847 2093 2123 2103 1870 1609 1807 1952 2065 2045 1922 1481 752 692 766 616 506 682 861
1027 2382 2981 3770 3833 3418 2106 1599 1606 1605 1529 1357 1244 1501 1734 2061 2144 2051 1726 1639 1645 1738 1826 1590 1298 1099 1075 870 688 871 798 837
10 1554 2409 3023 2983 3219 3438 3315 2902 2572 2341 2330 2113 1783 1598 1755 1732 1602 1842 1598 1429 1528 1488 1475 1443 1442 1244 839 866 727 753 565
151 615 1992 2335 1955 2110 2004 1848 2599 2666 2790 2672 2569 2209 1974 2116 2022 1693 1825 1681 1563 1314 1497 1830 1666 1356 977 1229 1195 808 746 468
0 0 264 1151 2394 2406 2507 2810 2524 2531 2516 2755 2636 2392 2206 2036 1805 1680 1684 1663 1531 1423 1479 1448 1441 1347 1203 1235 1076 899 641 470
0 0 0 174 488 882 1867 2310 2220 1834 1712 1766 1832 2197 2289 2268 2041 1773 1558 1642 1544 1523 1577 1536 1599 1580 1547 1626 1486 1350 1065 822
0 0 0 0 31 37 136 153 184 212 83 13 14 60 181 855 1910 1800 1718 1588 1599 1491 1503 1535 1476 1429 1401 1553 1525 1583 1502 1592
0 0 0 0 0 0 0 0 0 1 0 0 0 0 0 0 281 1307 1267 1270 1184 1090 869 1145 1426 1433 1152 1400 1556 1718 1683 1514
0 0 0 0 0 0 0 0 0 0 0 0 0 0 0 0 0 33 2 24 703 811 129 7 291 619 826 1355 1631 1681 1729 1766
0 0 0 0 0 0 0 0 0 0 0 0 0 0 0 0 0 0 0 0 40 627 849 675 796 739 642 834 1257 1273 1432 1445
0 0 0 0 0 0 0 0 0 0 0 0 0 0 0 0 0 0 0 0 0 28 159 363 984 990 801 621 734 848 865 1104
0 0 0 0 0 0 0 0 0 0 0 0 0 0 0 0 0 0 0 0 0 0 0 42 88 486 463 354 408 554 512 710
0 0 0 0 0 0 0 0 0 0 0 0 0 0 0 0 0 0 0 0 0 0 0 2 13 66 202 264 230 330 403 341
0 0 0 0 0 0 0 0 0 0 0 0 0 0 0 0 0 0 0 0 0 0 0 0 0 0 21 88 150 50 174 309
0 0 0 0 0 0 0 0 0 0 0 0 0 0 0 0 0 0 0 0 0 0 0 0 0 0 0 0 37 144 95 62
0 0 0 0 0 0 0 0 0 0 0 0 0 0 0 0 0 0 0 0 0 3 3 3 2 0 0 0 0 3 0 174
0 0 0 0 0 0 0 0 0 0 0 0 0 0 0 0 0 0 1 1 2 1 1 1 0 0 1 1 0 4 0 13
0 0 0 0 0 0 0 0 0 0 0 0 0 0 0 1 0 2 1 2 1 3 1 3 2 0 2 1 1 1 0 1
0 0 0 0 0 0 0 0 0 0 0 0 0 1 2 1 3 4 3 0 6 6 4 4 6 5 4 3 2 1 2 1

GFSFLT2_con_mlcape_141.txt.gz
CAPE
2466 2131 2079 1508 1325 1345 1271 1154 1124 1242 1538 1886 2178 2208 2086 1956 1761 1545 1507 1606 1781 1928 2026 1985 1992 1966 1538 950 566 128 101 186
475 1427 2272 2213 2270 1741 1508 1500 1372 1224 1169 1222 1552 1718 1965 2140 2022 1907 1641 1625 1657 1654 1927 2021 1923 1981 1807 1235 692 234 250 220
0 0 161 967 2082 2778 2039 1681 1456 1378 1364 1292 1197 1180 1366 1203 1525 1704 1703 1736 1744 1704 1680 1754 1899 1887 1769 1291 697 357 352 193
0 0 4 167 1006 1277 2088 1866 1584 1363 1583 1736 1626 1574 1490 1492 1648 1542 1437 1315 1402 1576 1434 1423 1386 1665 1519 1224 702 424 463 302
0 0 0 2 190 354 644 1182 96 598 338 516 1726 1897 1904 1777 1698 1444 1396 1328 1317 1478 1439 1227 1273 1297 1280 1067 772 524 558 379
0 0 0 0 0 44 70 201 104 41 0 0 44 103 107 218 347 825 1008 977 1192 1066 1125 1095 1073 865 681 643 837 882 848 483
0 0 0 0 0 0 0 0 0 0 0 0 0 0 0 0 0 25 156 143 197 222 336 469 627 531 19 0 0 0 479 602
0 0 0 0 0 0 0 0 0 0 0 0 0 0 0 0 0 0 0 0 0 0 60 148 101 49 3 4 0 19 333 643
0 0 0 0 0 0 0 0 0 0 0 0 0 0 0 0 0 0 0 0 0 0 40 125 83 0 0 0 0 0 101 486
0 0 0 0 0 0 0 0 0 0 0 0 0 0 0 0 0 0 0 0 0 0 0 0 0 0 0 0 0 2 0 109
0 0 0 0 0 0 0 0 0 0 0 0 0 0 0 0 0 0 0 0 0 0 0 0 0 0 13 0 0 0 0 186
0 0 0 0 0 0 0 0 0 0 0 0 0 0 0 0 0 0 0 0 0 0 0 0 0 0 0 3 141 381 339 240
0 0 0 0 0 0 0 0 0 0 0 0 0 0 0 0 0 0 0 0 0 0 0 0 0 0 0 0 3 100 215 323
0 0 0 0 0 0 0 0 0 0 0 0 0 0 0 0 0 0 0 0 0 0 0 0 0 0 0 0 0 2 36 130
0 0 0 0 0 0 0 0 0 0 0 0 0 0 0 0 0 0 0 0 0 0 0 0 0 0 0 0 1 5 0 0
0 0 0 0 0 0 0 0 0 0 0 0 0 0 0 0 0 0 0 0 0 0 0 0 0 0 0 0 0 0 1 0
0 0 0 0 0 0 0 0 0 0 0 0 0 0 0 0 0 0 0 1 1 0 0 0 0 0 0 0 0 0 0 0
0 0 0 0 0 0 0 0 0 0 0 0 0 0 0 0 0 0 0 0 0 1 1 1 1 1 0 0 1 2 1 2
0 0 0 0 0 0 0 0 0 0 0 0 0 0 0 0 0 0 0 0 0 0 0 2 2 1 0 1 0 0 2 3
0 0 0 0 0 0 0 0 0 0 0 0 0 0 0 0 0 0 0 0 0 0 1 0 3 3 0 0 4 3 0 0

GFSFLT2_con_mlcape_147.txt.gz
CAPE
123 411 1007 1462 1612 1464 1282 1321 1416 1601 1778 1863 1913 1987 2029 2054 2052 1975 1746 1617 1637 1722 1693 1838 1970 1992 1712 1317 1018 662 421 213
0 41 390 1017 1676 1897 1637 1614 1535 1375 1315 1345 1406 1648 1870 1956 1991 1858 1943 1956 1852 1619 1378 1214 1429 1477 1443 1295 1385 1160 714 397
0 0 53 496 858 1119 1591 981 645 489 535 833 1454 1384 1285 1353 960 1061 1020 969 1180 1309 1442 1355 1188 943 798 754 910 990 891 604
0 0 0 14 181 285 364 136 1 0 0 48 156 141 224 362 298 472 303 260 340 394 520 783 979 1009 999 684 575 541 619 718
0 0 0 0 0 15 3 0 0 0 0 0 0 0 0 0 2 20 0 0 9 61 94 208 301 379 917 515 259 212 148 286
0 0 0 0 0 0 0 0 0 0 0 0 0 0 0 0 0 0 0 0 0 11 14 91 146 281 447 143 51 16 0 63
0 0 0 0 0 0 0 0 0 0 0 0 0 0 0 0 0 0 0 0 0 0 0 5 21 77 71 71 56 155 21 22
0 0 0 0 0 0 0 0 0 0 0 0 0 0 0 0 0 0 0 0 0 0 0 0 1 1 25 58 21 40 11 4
0 0 0 0 0 0 0 0 0 0 0 0 0 0 0 0 0 0 0 0 0 0 0 0 0 0 1 1 0 0 0 0
0 0 0 0 0 0 0 0 0 0 0 0 0 0 0 0 0 0 0 0 0 0 0 0 0 0 0 0 0 0 0 0
0 0 0 0 0 0 0 0 0 0 0 0 0 0 0 0 0 0 0 0 0 0 0 0 0 0 0 0 0 0 0 0
0 0 0 0 0 0 0 0 0 0 0 0 0 0 0 0 0 0 0 0 0 0 0 0 0 0 0 0 0 0 0 3
0 0 0 0 0 0 0 0 0 0 0 0 0 0 0 0 0 0 0 0 0 0 0 0 0 0 0 0 0 0 0 0
0 0 0 0 0 0 0 0 0 0 0 0 0 0 0 0 0 0 0 0 0 0 0 0 0 0 0 0 0 0 0 0
0 0 0 0 0 0 0 0 0 0 0 0 0 0 0 0 0 0 0 0 0 0 0 0 0 0 0 0 0 0 0 0
0 0 0 0 0 0 0 0 0 0 0 0 0 0 0 0 0 0 0 0 0 0 0 0 0 1 0 0 0 0 0 0
0 0 0 0 0 0 0 0 0 0 0 0 0 0 0 0 0 0 0 0 0 0 0 0 0 0 0 0 0 0 0 2
0 0 0 0 0 0 0 0 0 0 0 0 0 0 0 0 0 0 0 0 0 0 0 0 0 0 0 0 2 2 1 4
0 0 0 0 0 0 0 0 0 0 0 0 0 0 0 0 0 0 0 0 0 0 0 0 0 0 0 0 0 0 0 1
0 0 0 0 0 0 0 0 0 0 0 0 0 0 0 0 0 0 0 0 0 0 0 0 0 0 0 0 0 0 0 0

GFSFLT2_con_mlcape_150.txt.gz
CAPE
339 577 1038 1386 1440 1431 1342 1249 1149 1100 1079 1246 1420 1676 1882 1957 1966 1835 1855 1973 1878 1645 1398 1240 1291 1598 1563 1454 1047 762 484 281
133 356 586 1022 1333 1300 881 672 606 531 604 808 1142 1158 1235 1149 993 989 1009 1201 1335 1426 1452 1485 1423 1247 1068 1019 1070 1221 985 678
0 44 357 653 799 650 343 64 43 16 102 230 220 133 229 343 398 279 248 377 429 518 642 829 1094 1202 1209 967 914 723 967 966
0 0 11 171 237 58 0 0 0 0 0 0 0 0 0 5 48 0 0 3 74 130 159 263 437 786 1043 1036 973 701 697 729
0 0 0 0 0 0 0 0 0 0 0 0 0 0 0 0 0 0 0 0 0 1 5 64 139 270 496 812 846 764 575 296
0 0 0 0 0 0 0 0 0 0 0 0 0 0 0 0 0 0 0 0 0 0 0 1 8 55 254 548 515 365 228 181
0 0 0 0 0 0 0 0 0 0 0 0 0 0 0 0 0 0 0 0 0 0 0 0 0 0 22 93 164 201 215 272
0 0 0 0 0 0 0 0 0 0 0 0 0 0 0 0 0 0 0 0 0 0 0 0 0 0 1 29 77 80 91 150
0 0 0 0 0 0 0 0 0 0 0 0 0 0 0 0 0 0 0 0 0 0 0 0 0 0 0 0 0 3 11 10
0 0 0 0 0 0 0 0 0 0 0 0 0 0 0 0 0 0 0 0 0 0 0 0 0 0 0 0 0 0 0 1
0 0 0 0 0 0 0 0 0 0 0 0 0 0 0 0 0 0 0 0 0 0 0 0 0 0 0 0 0 0 0 0
0 0 0 0 0 0 0 0 0 0 0 0 0 0 0 0 0 0 0 0 0 0 0 0 0 0 0 0 0 0 0 0
0 0 0 0 0 0 0 0 0 0 0 0 0 0 0 0 0 0 0 0 0 0 0 0 0 0 0 0 0 0 0 0
0 0 0 0 0 0 0 0 0 0 0 0 0 0 0 0 0 0 0 0 0 0 0 0 0 0 0 0 0 0 0 0
0 0 0 0 0 0 0 0 0 0 0 0 0 0 0 0 0 0 0 0 0 0 0 0 0 0 0 0 0 0 0 0
0 0 0 0 0 0 0 0 0 0 0 0 0 0 0 0 0 0 0 0 0 0 0 0 0 0 0 0 0 0 1 0
0 0 0 0 0 0 0 0 0 0 0 0 0 0 0 0 0 0 0 0 0 0 0 0 0 0 1 0 1 0 0 3
0 0 0 0 0 0 0 0 0 0 0 0 0 0 0 0 0 0 0 0 0 0 0 0 0 0 0 0 1 1 1 2
0 0 0 0 0 0 0 0 0 0 0 0 0 0 0 0 0 0 0 0 0 0 0 0 0 0 0 0 0 0 0 0
0 0 0 0 0 0 0 0 0 0 0 0 0 0 0 0 0 0 0 0 0 0 0 0 0 0 0 0 0 0 0 0